[[{"header":{"parameterUnit":"m.s-1","parameterCategory":1,"la1":30.2991,"la2":30.254,"lo1":-89.0895,"lo2":-89.0444,"dy":0.0017,"dx":0.0017,"nx":28,"ny":28,"refTime":"2024-05-09T21:00:00:Z","depth":0,"parameterNumber":2,"parameterNumberName":"U-component_of_WINDS"},"data":[0,0,0,0,0,0,0,0,0,0,0,0,0,0,0,0,0,0,0,0,0,0,0,0,0,0,0,0,0,0,0,0,0,0,0,0,0,0,0,0,0,0,0,0,0,0,0,0,0,0,0,0,0,0,0,0,0,0,1.5257,1.5258,0,1.5317,1.5318,1.5318,1.5309,1.5308,1.5307,1.5306,1.5368,1.537,1.5373,0,0,0,0,0,0,0,0,0,0,0,0,0,1.5136,1.5138,1.5257,1.5258,1.5259,1.5317,1.5318,1.5318,1.5309,1.5308,1.5307,1.5306,1.5367,1.537,1.5373,0,0,0,0,0,0,0,0,0,0,0,0,0,1.5191,1.5139,1.5257,1.5261,1.5262,1.5317,1.5318,1.5319,1.531,1.5308,1.5307,1.5305,1.5366,1.537,1.5373,1.5427,0,0,1.5385,1.5387,0,0,0,0,0,0,0,0,1.5188,1.5196,1.526,1.5261,1.5262,1.5304,1.5297,1.5355,1.531,1.5292,1.5306,1.5305,1.5348,1.5353,1.5368,1.543,1.5433,1.5386,1.5388,1.539,1.5391,0,0,0,0,0,0,0,1.5184,1.5193,1.5281,1.5261,1.5262,1.526,1.5266,1.5308,1.5328,1.5293,1.5293,1.53,1.5348,1.5364,1.5369,1.5434,1.5385,1.5389,1.5391,1.5393,1.5544,1.5545,0,0,0,0,0,0,1.5179,1.519,1.5279,1.5283,1.5221,1.5264,1.5271,1.5292,1.5327,1.5331,1.5301,1.5299,1.5358,1.5364,1.5371,1.5436,1.5389,1.5393,1.5395,1.5542,1.5544,1.5546,0,0,0,0,0,0,1.5177,1.5187,1.5277,1.5236,1.5248,1.5267,1.5292,1.5294,1.531,1.5333,1.5336,1.5314,1.5357,1.5366,1.5413,1.5438,1.5395,1.5398,1.554,1.5543,1.5545,1.5566,0,0,0,0,0,0,1.5173,1.5187,1.5207,1.5237,1.525,1.5318,1.5293,1.5296,1.5316,1.5315,1.5346,1.5349,1.5357,1.5408,1.5417,1.5442,1.5401,1.5538,1.5541,1.5544,1.5564,1.5569,1.5574,0,0,0,0,0,1.5169,1.5211,1.5208,1.5219,1.5276,1.5319,1.5327,1.5334,1.5319,1.5339,1.5354,1.5348,1.5434,1.5413,1.5423,1.545,1.5536,1.554,1.5544,1.5561,1.5568,1.5574,0,0,0,0,0,0,1.5184,1.5215,1.5212,1.5265,1.529,1.5318,1.5344,1.5341,1.5371,1.5368,1.5376,1.5383,1.5431,1.5446,1.5421,1.5504,1.5483,1.5489,1.5492,1.5499,1.5505,1.55,1.5405,0,0,0,0,0,1.5193,1.5226,1.5251,1.5295,1.5308,1.5324,1.5343,1.5347,1.5372,1.5383,1.5401,1.5426,1.5459,1.548,1.5512,1.5566,1.5572,1.559,1.5595,1.56,1.5604,1.5634,1.5641,1.5558,1.5558,1.5558,0,0,1.5213,1.5234,1.5254,1.5299,1.5318,1.5352,1.5333,1.5369,1.5394,1.5388,1.5434,1.5449,1.5478,1.5529,1.5552,1.5542,1.5629,1.5604,1.5608,1.561,1.5638,1.5646,1.5653,1.5561,1.556,1.556,0,0,1.5265,1.5285,1.5323,1.5343,1.5373,1.5383,1.5393,1.5421,1.5431,1.5477,1.5474,1.5503,1.556,1.558,1.5598,1.5659,1.5654,1.5669,1.5696,1.5725,1.5731,1.5737,1.5758,1.5765,1.5674,1.5674,1.5674,0,1.5285,1.5335,1.5343,1.538,1.54,1.5397,1.5435,1.5455,1.5493,1.5507,1.5495,1.5565,1.5585,1.564,1.5655,1.567,1.568,1.5665,1.573,1.5736,1.5741,1.5761,1.5769,1.5675,1.5675,1.5675,1.5675,0,1.5359,1.5394,1.5421,1.5458,1.5481,1.5519,1.5532,1.5555,1.5557,1.5568,1.5616,1.5639,1.5674,1.5688,1.5691,1.5744,1.5737,1.5728,1.5707,1.5751,1.5769,1.5777,1.5678,1.5677,1.5677,1.5676,0,0,1.542,1.5462,1.5471,1.5488,1.5521,1.5548,1.5586,1.5621,1.5639,1.5666,1.5698,1.5746,1.5737,1.5757,1.5762,1.5787,1.5833,1.5775,1.5776,1.5784,1.5893,1.5898,1.5907,1.5831,1.5832,1.5834,1.589,0,1.5475,1.5541,1.5549,1.5608,1.564,1.5638,1.5671,1.5694,1.5707,1.5736,1.575,1.5783,1.577,1.5782,1.5807,1.5822,1.5855,1.5819,1.586,1.5861,1.5851,1.5917,1.5923,1.5975,1.5897,1.5899,1.59,0,1.5546,1.5575,1.5637,1.5665,1.5679,1.5708,1.5741,1.5769,1.5796,1.5803,1.5826,1.5828,1.5867,1.5845,1.5899,1.5874,1.5892,1.5902,1.5904,1.5907,1.5882,1.5921,1.5992,1.5999,1.5911,1.5911,1.591,0,1.5583,1.5638,1.5682,1.5696,1.5731,1.5751,1.5767,1.5792,1.5813,1.5842,1.5855,1.5888,1.5906,1.5932,1.5942,1.5926,1.5995,1.5975,1.6002,1.6002,1.6015,1.6014,1.6089,1.6029,1.6029,1.6029,1.6029,0,1.5642,1.568,1.5699,1.5726,1.5768,1.5778,1.5819,1.5834,1.5857,1.5886,1.5887,1.5915,1.5928,1.5958,1.5967,1.601,1.6018,1.6025,1.6026,1.6024,1.6023,1.6034,1.603,1.6031,1.603,1.603,1.603,0,1.569,1.5704,1.5752,1.5781,1.5789,1.5819,1.5844,1.587,1.5882,1.592,1.5929,1.5949,1.5984,1.5998,1.6041,1.6047,1.6096,1.6096,1.6086,1.6087,1.6112,1.6109,1.6196,1.6208,1.6142,1.6142,1.6143,0,1.5726,1.5754,1.5787,1.5807,1.5823,1.5855,1.5876,1.5887,1.5909,1.5942,1.5964,1.5999,1.6028,1.6085,1.6103,1.6136,1.6135,1.6164,1.614,1.6137,1.6134,1.6132,1.6134,1.6167,1.6168,1.6169,1.6169,0,1.5787,1.5793,1.5823,1.5856,1.5881,1.5907,1.5933,1.5949,1.5964,1.5989,1.6025,1.6047,1.6091,1.6126,1.616,1.6176,1.6175,1.6177,1.6184,1.6181,1.6174,1.6177,1.6097,1.6174,1.6174,1.6173,1.6173,1.6173,1.5829,1.5854,1.5881,1.5914,1.5935,1.5959,1.5985,1.6001,1.6031,1.6068,1.6073,1.6111,1.6138,1.6184,1.6202,1.6232,1.6224,1.6236,1.6239,1.6241,1.6242,1.6171,1.6239,1.6238,1.6238,1.6238,1.6238,0,1.5889,1.5906,1.5937,1.5973,1.6,1.5997,1.6025,1.6047,1.6081,1.6106,1.6135,1.6176,1.621,1.6231,1.6266,1.6286,1.6286,1.6294,1.6292,1.6296,1.6248,1.6237,1.6293,1.6293,1.6293,1.6293,1.6293,1.6293,1.5923,1.5966,1.5975,1.6028,1.6045,1.6083,1.6099,1.6121,1.6141,1.6187,1.6216,1.6229,1.6253,1.6289,1.632,1.6326,1.6338,1.6346,1.6351,1.6305,1.6299,1.6294,1.6283,1.6349,1.6349,1.6397,1.6397,1.6397]},{"header":{"parameterUnit":"m.s-1","parameterCategory":1,"la1":30.2991,"la2":30.254,"lo1":-89.0895,"lo2":-89.0444,"dy":0.0017,"dx":0.0017,"nx":28,"ny":28,"refTime":"2024-05-09T21:00:00:Z","depth":0,"parameterNumber":3,"parameterNumberName":"V-component_of_WINDS"},"data":[0,0,0,0,0,0,0,0,0,0,0,0,0,0,0,0,0,0,0,0,0,0,0,0,0,0,0,0,0,0,0,0,0,0,0,0,0,0,0,0,0,0,0,0,0,0,0,0,0,0,0,0,0,0,0,0,0,0,4.8432,4.8433,0,4.8541,4.8542,4.8543,4.8542,4.854,4.8539,4.8537,4.8649,4.8654,4.8658,0,0,0,0,0,0,0,0,0,0,0,0,0,4.8223,4.8227,4.8432,4.8433,4.8435,4.8541,4.8542,4.8544,4.8542,4.854,4.8538,4.8537,4.8648,4.8653,4.8658,0,0,0,0,0,0,0,0,0,0,0,0,0,4.8321,4.8228,4.8432,4.8447,4.8449,4.854,4.8542,4.8544,4.8542,4.854,4.8538,4.8536,4.8646,4.8653,4.8659,4.8743,0,0,4.8679,4.8682,0,0,0,0,0,0,0,0,4.8316,4.8329,4.8443,4.8446,4.8449,4.8525,4.851,4.8611,4.8543,4.8507,4.8537,4.8535,4.861,4.8619,4.8645,4.8748,4.8753,4.868,4.8683,4.8686,4.8688,0,0,0,0,0,0,0,4.8309,4.8324,4.8475,4.8445,4.8448,4.8448,4.8459,4.8529,4.8569,4.851,4.851,4.8523,4.8611,4.8638,4.8647,4.8755,4.8679,4.8685,4.8689,4.8692,4.8934,4.8937,0,0,0,0,0,0,4.8299,4.8318,4.8472,4.8478,4.8375,4.8453,4.8466,4.8503,4.8569,4.8577,4.8525,4.8522,4.8628,4.864,4.8651,4.8755,4.8686,4.8692,4.8696,4.8932,4.8935,4.8938,0,0,0,0,0,0,4.8294,4.8312,4.8467,4.8399,4.8418,4.8459,4.8501,4.8506,4.8534,4.858,4.8587,4.8545,4.8627,4.8642,4.8721,4.8758,4.8695,4.8701,4.8929,4.8933,4.8936,4.8962,0,0,0,0,0,0,4.8288,4.8311,4.8343,4.8399,4.8422,4.8535,4.8503,4.851,4.8545,4.8543,4.8601,4.8608,4.8626,4.8711,4.8727,4.8766,4.8706,4.8926,4.8931,4.8935,4.8958,4.8966,4.8973,0,0,0,0,0,4.8281,4.8346,4.8345,4.8363,4.8463,4.8537,4.855,4.8569,4.8548,4.8581,4.861,4.8606,4.8752,4.8719,4.8737,4.8779,4.8923,4.8929,4.8935,4.8954,4.8964,4.8973,0,0,0,0,0,0,4.8293,4.8353,4.8353,4.8438,4.8482,4.8536,4.8578,4.8579,4.863,4.8626,4.8648,4.8661,4.874,4.8767,4.873,4.8864,4.8835,4.8845,4.8844,4.8854,4.8861,4.8853,4.8712,0,0,0,0,0,4.8306,4.836,4.841,4.848,4.8503,4.8537,4.8569,4.8581,4.8627,4.8646,4.8682,4.8728,4.8784,4.882,4.8874,4.8962,4.8975,4.9,4.9007,4.9013,4.9021,4.9071,4.9082,4.8956,4.8956,4.8956,0,0,4.8332,4.8372,4.8405,4.8484,4.8519,4.8576,4.8552,4.8613,4.8655,4.8655,4.8732,4.876,4.8812,4.8896,4.8935,4.8921,4.9059,4.9021,4.9025,4.903,4.9078,4.909,4.91,4.896,4.896,4.8959,0,0,4.8409,4.8445,4.8507,4.8544,4.8598,4.862,4.8635,4.869,4.8708,4.8785,4.8787,4.8837,4.8933,4.8971,4.9003,4.9095,4.9094,4.9112,4.9152,4.92,4.921,4.9219,4.9252,4.9264,4.912,4.912,4.912,0,4.8435,4.852,4.8539,4.8601,4.8635,4.8638,4.8702,4.8736,4.8806,4.883,4.8814,4.8935,4.897,4.9063,4.9086,4.9111,4.913,4.9106,4.9207,4.9216,4.9225,4.9257,4.9269,4.9122,4.9122,4.9122,4.9121,0,4.855,4.8609,4.8653,4.872,4.8759,4.8822,4.8851,4.8889,4.8897,4.8921,4.9,4.9043,4.9106,4.9129,4.9137,4.9223,4.9213,4.9202,4.9173,4.9238,4.9269,4.9281,4.9125,4.9124,4.9124,4.9123,0,0,4.8637,4.8714,4.873,4.8761,4.8821,4.8867,4.893,4.8992,4.9024,4.9072,4.9125,4.9207,4.9197,4.9233,4.9246,4.9288,4.9359,4.9271,4.9273,4.9286,4.9458,4.9466,4.948,4.9358,4.9361,4.9363,4.9453,0,4.8721,4.8832,4.8851,4.8948,4.9003,4.9007,4.9062,4.9105,4.913,4.918,4.9207,4.9265,4.9247,4.9269,4.9311,4.9341,4.9394,4.9335,4.9409,4.9411,4.9396,4.9496,4.9505,4.9588,4.9465,4.9467,4.9469,0,4.8833,4.8884,4.8987,4.904,4.9064,4.9113,4.9171,4.9219,4.9269,4.9284,4.9325,4.9333,4.9398,4.9367,4.9458,4.9418,4.9449,4.9469,4.9473,4.9481,4.9444,4.9507,4.9615,4.9628,4.9488,4.9486,4.9485,0,4.8887,4.8981,4.9055,4.9081,4.9145,4.918,4.9208,4.9255,4.9291,4.9343,4.9367,4.9425,4.9457,4.9503,4.9527,4.9501,4.9617,4.9587,4.9632,4.9631,4.9656,4.9654,4.9771,4.9676,4.9676,4.9675,4.9675,0,4.8979,4.9041,4.908,4.9125,4.9196,4.9218,4.9287,4.9315,4.9358,4.9409,4.9416,4.9464,4.9493,4.9545,4.9565,4.9638,4.9652,4.9667,4.9671,4.9666,4.9665,4.9687,4.9682,4.9679,4.9678,4.9677,4.9677,0,4.9051,4.9079,4.916,4.9214,4.9229,4.9279,4.9326,4.937,4.9395,4.946,4.9476,4.9515,4.9578,4.9606,4.9683,4.9696,4.978,4.978,4.9763,4.9765,4.9809,4.9804,4.9945,4.9965,4.9856,4.9857,4.9857,0,4.9107,4.9156,4.9215,4.925,4.9279,4.9335,4.9372,4.9396,4.9434,4.9495,4.9532,4.9595,4.9646,4.9746,4.9781,4.9841,4.9843,4.9888,4.9852,4.9846,4.9844,4.9841,4.9846,4.9895,4.9896,4.9896,4.9897,0,4.9205,4.9217,4.9269,4.9328,4.9371,4.9418,4.9464,4.9493,4.9524,4.9567,4.963,4.967,4.9749,4.9811,4.9873,4.9903,4.9906,4.9908,4.9922,4.9918,4.9906,4.9914,4.9781,4.9905,4.9904,4.9904,4.9903,4.9903,4.9271,4.9315,4.9364,4.9422,4.946,4.9503,4.9547,4.9578,4.9631,4.9697,4.9708,4.9776,4.9825,4.9909,4.9941,4.9995,4.9985,5.0004,5.0009,5.0014,5.0017,4.9897,5.0007,5.0006,5.0006,5.0006,5.0006,0,4.937,4.9401,4.9455,4.9519,4.9566,4.9564,4.9615,4.9654,4.9714,4.976,4.981,4.9884,4.9945,4.9985,5.0047,5.0083,5.0086,5.0098,5.0096,5.0103,5.0022,5.0005,5.0095,5.0095,5.0095,5.0095,5.0095,5.0095,4.9426,4.95,4.9517,4.961,4.9641,4.9708,4.9737,4.9777,4.9814,4.9896,4.9946,4.9972,5.0016,5.0081,5.0137,5.0148,5.0171,5.0184,5.0194,5.0118,5.0109,5.01,5.0083,5.0188,5.0189,5.027,5.0271,5.0272]}]]